Location: Unspecified
(0.0000°N, 0.0000°E)
Time: 04:33:45
(UTC+00:00)

Envisat - Pass Details

Date: 16 June 2023
Orbit: 763 x 764 km, 98.2° (Epoch: 02 October)

Event Time Altitude Azimuth Distance (km) Brightness Sun altitude
Rises 02:51:36 0° 29° (NNE) 3,213 6.9 -42.4°
Reaches altitude 10° 02:54:05 10° 38° (NE) 2,291 6.0 -41.9°
Enters shadow 02:55:06 15° 44° (NE) 1,947 5.6 -41.7°
